TimeCST,TemperatureF,Dew PointF,Humidity,Sea Level PressureIn,VisibilityMPH,Wind Direction,Wind SpeedMPH,Gust SpeedMPH,PrecipitationIn,Events,Conditions,WindDirDegrees,DateUTC
12:51 AM,27.0,16.0,63,30.01,10.0,WNW,25.3,40.3,N/A,,Partly Cloudy,290,2012-12-21 06:51:00
1:51 AM,27.0,16.0,63,30.04,10.0,West,31.1,38.0,N/A,,Clear,280,2012-12-21 07:51:00
2:51 AM,27.0,16.0,63,30.06,10.0,West,29.9,38.0,N/A,,Clear,280,2012-12-21 08:51:00
3:51 AM,26.1,15.1,63,30.09,10.0,WNW,24.2,32.2,N/A,,Clear,290,2012-12-21 09:51:00
4:51 AM,25.0,14.0,63,30.12,10.0,WNW,19.6,31.1,N/A,,Clear,290,2012-12-21 10:51:00
5:51 AM,25.0,12.9,60,30.14,10.0,WNW,19.6,26.5,N/A,,Clear,290,2012-12-21 11:51:00
6:51 AM,24.1,12.9,62,30.17,10.0,WNW,20.7,32.2,N/A,,Clear,290,2012-12-21 12:51:00
7:51 AM,25.0,12.9,60,30.20,10.0,WNW,20.7,31.1,N/A,,Clear,290,2012-12-21 13:51:00
8:51 AM,27.0,14.0,58,30.24,10.0,WNW,20.7,28.8,N/A,,Clear,290,2012-12-21 14:51:00
9:51 AM,28.9,14.0,54,30.26,10.0,WNW,16.1,26.5,N/A,,Clear,300,2012-12-21 15:51:00
10:51 AM,32.0,15.1,50,30.27,10.0,WNW,13.8,24.2,N/A,,Clear,300,2012-12-21 16:51:00
11:51 AM,34.0,16.0,48,30.27,10.0,WNW,17.3,24.2,N/A,,Clear,290,2012-12-21 17:51:00
12:51 PM,35.1,15.1,44,30.26,10.0,WNW,20.7,28.8,N/A,,Clear,290,2012-12-21 18:51:00
1:51 PM,36.0,15.1,43,30.26,10.0,WNW,17.3,29.9,N/A,,Clear,290,2012-12-21 19:51:00
2:51 PM,37.0,15.1,41,30.27,10.0,WNW,13.8,-,N/A,,Clear,300,2012-12-21 20:51:00
3:51 PM,35.6,15.8,44,30.25,10.0,WNW,15.0,21.9,N/A,,Partly Cloudy,290,2012-12-21 21:51:00
4:51 PM,32.0,16.0,52,30.31,10.0,WNW,13.8,-,N/A,,Partly Cloudy,290,2012-12-21 22:51:00
5:51 PM,30.9,16.0,54,30.33,10.0,WNW,10.4,-,N/A,,Partly Cloudy,290,2012-12-21 23:51:00
6:51 PM,30.0,15.1,54,30.34,10.0,WNW,11.5,-,N/A,,Clear,290,2012-12-22 00:51:00
7:51 PM,28.9,15.1,56,30.35,10.0,WNW,8.1,-,N/A,,Clear,290,2012-12-22 01:51:00
8:51 PM,28.0,15.1,58,30.34,10.0,WNW,9.2,-,N/A,,Clear,290,2012-12-22 02:51:00
9:51 PM,27.0,16.0,63,30.34,10.0,West,8.1,-,N/A,,Clear,280,2012-12-22 03:51:00
10:51 PM,27.0,15.1,61,30.33,10.0,West,8.1,-,N/A,,Clear,280,2012-12-22 04:51:00
11:51 PM,25.0,14.0,63,30.33,10.0,WNW,6.9,-,N/A,,Clear,290,2012-12-22 05:51:00